Regional Weather Roundup
Issued by NWS

Home | Current Version | Previous Version | Graphics & Text | Print | Product List | Glossary On
Versions: 1 2 3 4 5 6 7 8 9 10 11 12 13 14 15 16 17 18 19 20 21 22 23 24 25 26 27 28 29 30 31 32 33 34 35 36 37 38 39 40 41 42 43 44 45 46 47 48 49 50
000
ASUS43 KTOP 162208
RWRKS

WEATHER ROUNDUP FOR KANSAS
NATIONAL WEATHER SERVICE GOODLAND KS
500 PM CDT WED AUG 16 2017

NOTE:  "FAIR" INDICATES FEW OR NO CLOUDS BELOW 12,000 FEET WITH NO
SIGNIFICANT WEATHER AND/OR OBSTRUCTIONS TO VISIBILITY.

KSZ001>006-013>018-027>032-041>047-162300-
NORTHWEST KANSAS

CITY           SKY/WX    TMP DP  RH WIND       PRES   REMARKS
GOODLAND       MOSUNNY   77  53  43 NW15G21   30.00S
HAYS           SUNNY     83  62  49 NW13      29.89F
HILL CITY      MOSUNNY   84  62  47 W10       29.90F
RUSSELL        SUNNY     84  58  40 W15       29.87S
$$

KSZ061>065-074>080-084>089-162300-
SOUTHWEST KANSAS

CITY           SKY/WX    TMP DP  RH WIND       PRES   REMARKS
DODGE CITY     MOSUNNY   87  57  35 N14       29.92F
ELKHART          N/A     83  54  37 N8          N/A
GARDEN CITY    SUNNY     84  57  39 NW12G20   29.95S
GREAT BEND     SUNNY     83  63  50 N14G21    29.89F
LIBERAL        SUNNY     85  61  44 N12       29.97R
PRATT          SUNNY     84  62  46 N14       29.88R
$$

KSZ066>073-081>083-090>101-162300-
SOUTHEAST KANSAS

CITY           SKY/WX    TMP DP  RH WIND       PRES   REMARKS
CHANUTE        CLOUDY    88  77  69 S15       29.79F HX 100
COFFEYVILLE    MOSUNNY   88  76  67 S21G28    29.79F HX  99
HUTCHINSON     CLOUDY    81  67  62 N12       29.85S
MEDICINE LODGE   N/A     82  72  71 NE10      29.85R
NEWTON         PTSUNNY   80  69  69 N13       29.84F
PARSONS        PTSUNNY   83  79  88 E5        29.81F
WICHITA INTL   LGT RAIN  75  70  84 N8        29.82S
WICHITA JABRA  LGT RAIN  73  71  93 N6        29.82F
WICHITA MCCONL PTSUNNY   77  64  65 N13       29.81F
WINFIELD       TSTM      80  76  87 W13G22    29.80F
$$

KSZ007>012-019>026-033>040-048>060-102>105-162300-
NORTHEAST KANSAS

CITY           SKY/WX    TMP DP  RH WIND       PRES   REMARKS
CONCORDIA      SUNNY     82  64  54 W9        29.84S
EMPORIA        LGT RAIN  78  69  73 NW7       29.82S
LAWRENCE       CLOUDY    82  73  74 W8        29.79F
MANHATTAN      CLOUDY    82  67  60 W9        29.82F
MARYSVILLE     MOSUNNY   82  63  51 W8        29.82S
OLATHE IND     TSTM      77  75  93 S10       29.81F FOG
OLATHE EXE     TSTM      78  75  90 W7        29.80F FOG
SALINA         SUNNY     86  64  47 NW13      29.84F
TOPEKA BILLARD CLOUDY    80  71  74 W6        29.80F
TOPEKA FORBES  CLOUDY    80  71  74 NW8       29.81F
$$




USA.gov is the U.S. government's official web portal to all federal, state and local government web resources and services.